Location: Unspecified
(51.0950°N, 12.9690°E)
Time: 21:34:27
(UTC+00:00)

USA 229 DEB - Pass Details

Date: 28 October 2021
Orbit: 944 x 1268 km, 63.4° (Epoch: 25 November)

Event Time Altitude Azimuth Distance (km) Brightness Sun altitude
Rises 16:18:01 0° 191° (S) 3,627 6.9 -5.1°
Reaches altitude 10° 16:20:40 10° 184° (S) 2,709 6.1 -5.5°
Maximum altitude 16:26:25 38° 118° (ESE) 1,496 4.2 -6.4°
Drops below altitude 10° 16:32:34 10° 53° (NE) 2,897 5.4 -7.4°
Enters shadow 16:34:13 - 49° (NE) 3,462 5.8 -7.6°
